Regional Weather Roundup
Issued by NWS

Home | Current Version | Previous Version | Graphics & Text | Print | Product List | Glossary On
Versions: 1 2 3 4 5 6 7 8 9 10 11 12 13 14 15 16 17 18 19 20 21 22 23 24 25 26 27 28 29 30 31 32 33 34 35 36 37 38 39 40 41 42 43 44 45 46 47 48 49 50
627
ASUS43 KMPX 220510
RWRMN
WEATHER ROUNDUP FOR MINNESOTA
NATIONAL WEATHER SERVICE TWIN CITIES/CHANHASSEN MN
1100 PM CST SAT JAN 21 2017


NOTE: "FAIR" INDICATES FEW OR NO CLOUDS BELOW 12,000 FEET WITH NO
SIGNIFICANT WEATHER AND/OR OBSTRUCTIONS TO VISIBILITY. N/A MEANS
CURRENT SKY AND/OR WEATHER CONDITIONS ARE NOT AVAILABLE.

MNZ060>063-068>070-220600-
   Twin Cities Metro

CITY           SKY/WX    TMP DP  RH WIND       PRES   REMARKS
TWIN CITIES    DRZL/FOG  36  35  96 CALM      29.54R VSB 1/4
ST PAUL        FOG       34  34 100 CALM      29.55R VSB 1/4
CRYSTAL        FOG       36  34  92 CALM      29.53R VSB 1/4
BLAINE         FOG       37  37 100 CALM      29.54R VSB 1/4
LAKEVILLE      FOG       32  32 100 NW3       29.53S VSB 1/2
EDEN PRAIRIE   FOG       36  34  92 CALM      29.53R VSB 1/4
SOUTH ST PAUL  FOG       35  35  99 CALM      29.54R VSB 1/2
LAKE ELMO      FOG       34  34 100 CALM      29.54R VSB 1/2
$$
MNZ001>005-007-008-013>017-022>024-027-028-220600-
   Northwest Minnesota

CITY           SKY/WX    TMP DP  RH WIND       PRES   REMARKS
BEMIDJI        FOG       33  33 100 CALM      29.55R VSB 1/2
HALLOCK        CLOUDY    36  34  93 E5        29.57S
ROSEAU         FOG       34  30  86 E6        29.58S VSB 1/2 WCI  29
WARROAD        FOG       34  28  80 CALM      29.59S VSB 1/4
THIEF RVR FALL CLOUDY    34  33  96 E6        29.57R WCI  29
CROOKSTON      CLOUDY    36  34  93 SE5       29.57S
FOSSTON        FOG       32  30  93 CALM      29.57R VSB 3/4
DETROIT LAKES  FOG       34  34 100 CALM      29.57R VSB 1/2
MOORHEAD       FOG       34  32  93 CALM      29.58R VSB 1/2
PARK RAPIDS    FOG       34  31  88 CALM      29.54R VSB 1/2
MAHNOMEN       CLOUDY    34  33  97 CALM      29.56R
$$
MNZ006-009>011-018-025>026-220600-
   North Central Minnesota

CITY           SKY/WX    TMP DP  RH WIND       PRES   REMARKS
BAUDETTE       FOG       34  33  96 NE3       29.57S VSB 1/4
FLAG ISLAND    FOG       34  34 100 CALM      29.59R VSB 1
INTL FALLS     FOG       34  33  96 NE3       29.57S VSB 1/4
WASKISH        FOG       36  34  93 CALM      29.57R VSB 1/2
BIG FORK       FOG       36  34  93 CALM      29.55R VSB 3/4
LONGVILLE      FOG       34  34 100 CALM      29.55R VSB 1/2
GRAND RAPIDS   FOG       34  33  96 NW3       29.57R VSB 1/4
CRANE LAKE     CLOUDY    32  32 100 CALM      29.58S FOG
ORR            FOG       34  32  93 CALM      29.53S VSB 3/4
COOK           FOG       34  34 100 CALM      29.55S VSB 1
WALKER         FOG       33  33  99 CALM      29.55R VSB 3/4
$$
MNZ012-019>021-037-220600-
   Northeast Minnesota

CITY           SKY/WX    TMP DP  RH WIND       PRES   REMARKS
DULUTH         CLOUDY    34  34 100 NE7       29.53R WCI  28
ELY            LGT SNOW  34  34 100 CALM      29.55R
HIBBING        CLOUDY    33  33 100 N3        29.54R FOG
EVELETH        CLOUDY    35  35  99 CALM      29.54S
DULUTH HARBOR  CLOUDY    34  34 100 NE8       29.55R WCI  27
TWO HARBORS    CLOUDY    37  34  87 NE7       29.51S HAZE
SILVER BAY     CLOUDY    36  36 100 NE7       29.52F FOG
GRAND MARAIS     N/A     36  35  96 CALM      29.56R
G MARAIS ARPRT MIX PCPN  32  28  86 N8        29.52S WCI  25
$$
MNZ029>031-032-039>041-046>048-054>057-064-220600-
   West Central Minnesota

CITY           SKY/WX    TMP DP  RH WIND       PRES   REMARKS
FERGUS FALLS   DRIZZLE   34  34 100 CALM      29.60R
WHEATON        FOG       39  39 100 CALM      29.59R VSB 1/4
MORRIS         MIX PCPN  34  34 100 CALM      29.55R VSB 1/4
ALEXANDRIA     FOG       34  33  96 CALM      29.56R VSB 1/2
ELBOW LAKE     SNOW      32  32 100 CALM      29.56R VSB 1/2
WADENA         FOG       34  34 100 CALM      29.54R VSB 1/4
GLENWOOD       MIX PCPN  34  34 100 CALM      29.55R VSB 1
APPLETON       FOG       34  34 100 CALM      29.56R VSB 1/2
BENSON         CLOUDY    36  32  87 CALM      29.57R
ORTONVILLE     DRZL/FOG  34  32  93 CALM      29.56R VSB 3/4
MADISON        FOG       36  36 100 NW5       29.56R VSB 1/4
WILLMAR        FOG       34  34 100 CALM      29.56R VSB 1
$$
MNZ033>034-036-042>043-049>051-058-059-220600-
   Central Minnesota

CITY           SKY/WX    TMP DP  RH WIND       PRES   REMARKS
ST CLOUD       FOG       34  34 100 CALM      29.54R VSB 1/2
SAUK CENTRE    FOG       33  33 100 CALM      29.55R VSB 1/2
PAYNESVILLE    FOG       33  33 100 CALM      29.56R VSB 1/2
AITKIN         CLOUDY    36  34  93 CALM      29.54R FOG
PINE RIVER     FOG       34  34 100 CALM      29.59R VSB 1
BRAINERD       CLOUDY    34  33  96 NE7       29.55R FOG     WCI  28
STAPLES        FOG       34  34 100 CALM      29.55R VSB 1/2
LONG PRAIRIE   SNOW      32  32 100 CALM      29.55R VSB 1/4
LITTLE FALLS   FOG       34  32  93 CALM      29.55R VSB 3/4
LITCHFIELD     FOG       36  36 100 CALM      29.55R VSB 1/2
BUFFALO        FOG       34  33  97 CALM      29.55R VSB 1/4
MAPLE LAKE     FOG       35  35 100 CALM      29.55R VSB 1/2
HUTCHINSON     FOG       34  34 100 NW3       29.55R VSB 1/2
$$
MNZ037-044-045-052-053-220600-
   East Central Minnesota

CITY           SKY/WX    TMP DP  RH WIND       PRES   REMARKS
PRINCETON      CLOUDY    36  34  93 CALM      29.55R FOG
MORA           CLOUDY    34  32  93 CALM      29.55S
CAMBRIDGE      FOG       36  36 100 CALM      29.53R VSB 1/4
RUSH CITY      FOG       34  34 100 N3        29.54R VSB 1/2
MOOSE LAKE     FOG       34  32  93 NE3       29.52R VSB 1
HINCKLEY       CLOUDY    34  34 100 N3        29.54S FOG
CLOQUET        FOG       34  34 100 CALM      29.53R VSB 3/4
MCGREGOR       CLOUDY    34  34 100 N3        29.54R
$$
MNZ071>073-080-081-089-090-097-098-220600-
   Southwest Minnesota

CITY           SKY/WX    TMP DP  RH WIND       PRES   REMARKS
MONTEVIDEO     FOG       34  34 100 CALM      29.57R VSB 1/4
GRANITE FALLS  FOG       35  35 100 NW3       29.57R VSB 1/4
CANBY          CLOUDY    34  34 100 CALM      29.56R FOG
MARSHALL       CLOUDY    33  33 100 NW7       29.56R FOG     WCI  27
REDWOOD FALLS  FOG       34  32  92 W3        29.54R VSB 1/4
OLIVIA         FOG       34  34 100 CALM      29.54R VSB 3/4
PIPESTONE      CLOUDY    32  30  93 NW7       29.54R FOG     WCI  26
WINDOM         MIX PCPN  34  34 100 W6        29.53S VSB 1/2 WCI  29
WORTHINGTON    CLOUDY    32  31  96 MISG        N/A
JACKSON        CLOUDY    32  32 100 W9        29.54R FOG     WCI  24
TRACY          FOG       34  34 100 NW6       29.55R VSB 3/4 WCI  29
SLAYTON        CLOUDY    32  32  99 W8        29.54R FOG     WCI  25
$$
MNZ065>067-074>077-082>085-091>093-220600-
   South Central Minnesota

CITY           SKY/WX    TMP DP  RH WIND       PRES   REMARKS
MANKATO        FOG       35  34  96 W6        29.54R VSB 1/4 WCI  30
NEW ULM        FOG       34  34 100 CALM      29.54R VSB 1/2
ST JAMES       LGT SNOW  34  34 100 W5        29.55R WCI  30
FAIRMONT       CLOUDY    33  31  92 W7        29.55R WCI  27
GLENCOE        FOG       35  35 100 CALM      29.54R VSB 1/4
OWATONNA       FOG       34  34 100 SW6       29.54R VSB 1/4 WCI  29
WASECA         FOG       32  32 100 SW6       29.55R VSB 1/2 WCI  26
ALBERT LEA     CLOUDY    34  34 100 SW3       29.53S FOG
$$
MNZ078>079-086>088-094>096-220600-
   Southeast Minnesota

CITY           SKY/WX    TMP DP  RH WIND       PRES   REMARKS
ROCHESTER      CLOUDY    34  34 100 W9        29.52R FOG     WCI  27
RED WING       FOG       36  34  93 CALM      29.53R VSB 1/2
STANTON        CLOUDY    34  33  95 CALM      29.52S FOG
DODGE CENTER   FOG       34  34 100 CALM      29.52S VSB 3/4
WINONA         CLOUDY    36  36 100 CALM      29.54S
AUSTIN         CLOUDY    34  34 100 SW3       29.54R FOG
PRESTON        FOG       34  33  97 W9        29.54R VSB 3/4 WCI  27
$$
ABBREVIATIONS USED IN REMARKS
   TC - TEMPERATURES IN CELSIUS
  WCI - WIND CHILL INDEX
   HX - HEAT INDEX
  VSB - VISIBILITY
$$




USA.gov is the U.S. government's official web portal to all federal, state and local government web resources and services.